Torna al catalogo

SS 2

AttivoMilitareLEO
NORAD 10544·PAYLOAD·🇺🇸 United States

Lanciato Dec 8, 1977 da Vandenberg Space Force Base

Loading…

Prossimi Passaggi (prossime 24 ore)

TLE

AggiornatoSource: Space-Track

Epoca: Sep 14, 2026, 00:16 UTC

1 10544U 77112E   26257.01140215  .00000430  00000-0  15763-3 0  9990
2 10544  63.3382  95.2366 0501999 163.6715 198.1198 13.91362852364756

Traccia SS 2 in tempo reale con AllMySat

Download on the App Store